When you browse on this site, cookies collect data to enhance your experience and personalize the content and advertising you see.
Visit our Privacy Policy to learn more. By continuing to use the site, you agree to this use of cookies and data.
  • In Romania
  • List of Countries
  • For 7 days
  • Water Temperature
  • Satellite Maps
  • Weather Map
  • Weather Widgets
  • user-avatar
    Login

    Hourly Weather Kaprun

    Today, 17 June, Monday

    Time Temperature Precipitation Wind Pressure Humidity
    00:00 +7°C° 0 mm 1 mps 600 mmHg 97%
    01:00 +7°C° 0 mm 1 mps 600 mmHg 97%
    02:00 +6°C° 0 mm 1 mps 600 mmHg 97%
    03:00 +6°C° 0 mm 1 mps 600 mmHg 97%
    04:00 +6°C° 0 mm 1 mps 600 mmHg 97%
    05:00 +7°C° 0 mm 1 mps 600 mmHg 92%
    06:00 +8°C° 0 mm 0 mps 601 mmHg 87%
    07:00 +9°C° 0 mm 0 mps 601 mmHg 83%
    08:00 +12°C° 0 mm 1 mps 602 mmHg 74%
    09:00 +13°C° 0 mm 1 mps 602 mmHg 65%
    10:00 +15°C° 0 mm 2 mps 603 mmHg 56%
    11:00 +16°C° 0.2 mm 2 mps 603 mmHg 56%
    12:00 +16°C° 0.2 mm 2 mps 603 mmHg 55%
    13:00 +17°C° 0.2 mm 2 mps 603 mmHg 54%
    14:00 +16°C° 0.7 mm 1 mps 602 mmHg 59%
    15:00 +16°C° 0.7 mm 1 mps 602 mmHg 64%
    16:00 +15°C° 0.7 mm 1 mps 601 mmHg 69%
    17:00 +14°C° 1.1 mm 1 mps 601 mmHg 76%
    18:00 +13°C° 1.1 mm 1 mps 601 mmHg 82%
    19:00 +12°C° 1.1 mm 1 mps 600 mmHg 89%
    20:00 +11°C° 0.4 mm 1 mps 600 mmHg 90%
    21:00 +10°C° 0.4 mm 1 mps 599 mmHg 90%
    22:00 +8°C° 0.4 mm 1 mps 599 mmHg 91%
    23:00 +8°C° 0 mm 1 mps 599 mmHg 91%

    Tomorrow, 18 June, Tuesday

    Time Temperature Precipitation Wind Pressure Humidity
    00:00 +8°C° 0 mm 1 mps 599 mmHg 91%
    01:00 +8°C° 0 mm 1 mps 599 mmHg 90%
    02:00 +7°C° 0 mm 1 mps 598 mmHg 90%
    03:00 +7°C° 0 mm 1 mps 598 mmHg 89%
    04:00 +7°C° 0 mm 1 mps 598 mmHg 88%
    05:00 +9°C° 0 mm 1 mps 599 mmHg 84%
    06:00 +10°C° 0 mm 0 mps 600 mmHg 79%
    07:00 +12°C° 0 mm 0 mps 601 mmHg 75%
    08:00 +14°C° 0.9 mm 1 mps 601 mmHg 73%
    09:00 +15°C° 0.9 mm 1 mps 601 mmHg 71%
    10:00 +16°C° 0.9 mm 1 mps 601 mmHg 69%
    11:00 +16°C° 2 mm 1 mps 601 mmHg 70%
    12:00 +16°C° 2 mm 1 mps 601 mmHg 70%
    13:00 +16°C° 2 mm 1 mps 601 mmHg 70%
    14:00 +16°C° 1.7 mm 1 mps 601 mmHg 70%
    15:00 +16°C° 1.7 mm 1 mps 600 mmHg 70%
    16:00 +16°C° 1.7 mm 1 mps 600 mmHg 71%
    17:00 +15°C° 1.4 mm 1 mps 600 mmHg 77%
    18:00 +14°C° 1.4 mm 1 mps 599 mmHg 83%
    19:00 +12°C° 1.4 mm 0 mps 599 mmHg 89%
    20:00 +12°C° 0.9 mm 1 mps 599 mmHg 91%
    21:00 +11°C° 0.9 mm 1 mps 599 mmHg 93%
    22:00 +9°C° 0.9 mm 2 mps 599 mmHg 94%
    23:00 +10°C° 0.6 mm 1 mps 598 mmHg 94%

    Day after tomorrow, 19 June, Wednesday

    Time Temperature Precipitation Wind Pressure Humidity
    00:00 +10°C° 0.6 mm 1 mps 598 mmHg 93%
    01:00 +9°C° 0.6 mm 1 mps 598 mmHg 92%
    02:00 +9°C° 0.1 mm 1 mps 597 mmHg 91%
    03:00 +8°C° 0.1 mm 0 mps 597 mmHg 90%
    04:00 +8°C° 0.1 mm 0 mps 597 mmHg 89%
    05:00 +9°C° 0.1 mm 0 mps 598 mmHg 85%
    06:00 +11°C° 0.1 mm 0 mps 598 mmHg 81%
    07:00 +12°C° 0.1 mm 0 mps 599 mmHg 77%
    08:00 +13°C° 0.7 mm 0 mps 599 mmHg 72%
    09:00 +15°C° 0.7 mm 1 mps 600 mmHg 68%
    10:00 +16°C° 0.7 mm 1 mps 600 mmHg 63%
    11:00 +16°C° 0.9 mm 1 mps 600 mmHg 62%
    12:00 +16°C° 0.9 mm 1 mps 600 mmHg 60%
    13:00 +16°C° 0.9 mm 1 mps 600 mmHg 59%
    14:00 +16°C° 0.7 mm 1 mps 599 mmHg 62%
    15:00 +16°C° 0.7 mm 1 mps 599 mmHg 66%
    16:00 +15°C° 0.7 mm 1 mps 599 mmHg 69%
    17:00 +14°C° 0.4 mm 1 mps 599 mmHg 75%
    18:00 +13°C° 0.4 mm 1 mps 598 mmHg 81%
    19:00 +12°C° 0.4 mm 1 mps 598 mmHg 87%
    20:00 +11°C° 0 mm 1 mps 597 mmHg 86%
    21:00 +10°C° 0 mm 1 mps 597 mmHg 85%
    22:00 +8°C° 0 mm 1 mps 597 mmHg 84%
    23:00 +8°C° 0 mm 1 mps 597 mmHg 83%

    20 June, Thursday

    Time Temperature Precipitation Wind Pressure Humidity
    00:00 +8°C° 0 mm 1 mps 597 mmHg 81%
    01:00 +8°C° 0 mm 1 mps 596 mmHg 79%
    02:00 +8°C° 0 mm 1 mps 596 mmHg 78%
    03:00 +7°C° 0 mm 1 mps 596 mmHg 78%
    04:00 +7°C° 0 mm 1 mps 596 mmHg 77%
    05:00 +9°C° 0 mm 1 mps 597 mmHg 73%
    06:00 +12°C° 0 mm 1 mps 599 mmHg 68%
    07:00 +14°C° 0 mm 1 mps 600 mmHg 64%
    08:00 +15°C° 0 mm 1 mps 600 mmHg 57%
    09:00 +18°C° 0 mm 1 mps 601 mmHg 49%
    10:00 +19°C° 0 mm 1 mps 601 mmHg 42%
    11:00 +19°C° 0 mm 2 mps 601 mmHg 40%
    12:00 +20°C° 0 mm 2 mps 601 mmHg 39%
    13:00 +20°C° 0 mm 2 mps 601 mmHg 37%
    14:00 +20°C° 0 mm 2 mps 601 mmHg 41%
    15:00 +19°C° 0 mm 2 mps 600 mmHg 44%
    16:00 +19°C° 0 mm 2 mps 600 mmHg 48%
    17:00 +17°C° 0.7 mm 2 mps 600 mmHg 60%
    18:00 +15°C° 0.7 mm 2 mps 599 mmHg 71%
    19:00 +14°C° 0.7 mm 1 mps 599 mmHg 83%
    20:00 +12°C° 0.7 mm 1 mps 598 mmHg 87%
    21:00 +10°C° 0.7 mm 1 mps 598 mmHg 91%
    22:00 +9°C° 0.7 mm 1 mps 597 mmHg 95%
    23:00 +9°C° 0.2 mm 1 mps 597 mmHg 96%

    21 June, Friday

    Time Temperature Precipitation Wind Pressure Humidity
    00:00 +9°C° 0.2 mm 1 mps 597 mmHg 97%
    01:00 +9°C° 0.2 mm 1 mps 597 mmHg 98%
    02:00 +9°C° 0.4 mm 1 mps 598 mmHg 97%
    03:00 +9°C° 0.4 mm 1 mps 598 mmHg 97%
    04:00 +9°C° 0.4 mm 1 mps 598 mmHg 97%
    05:00 +10°C° 0 mm 1 mps 598 mmHg 93%
    06:00 +10°C° 0 mm 1 mps 598 mmHg 90%
    07:00 +10°C° 0 mm 0 mps 599 mmHg 87%
    08:00 +12°C° 0.2 mm 1 mps 599 mmHg 80%
    09:00 +14°C° 0.2 mm 1 mps 600 mmHg 72%
    10:00 +16°C° 0.2 mm 1 mps 600 mmHg 65%
    11:00 +15°C° 1.1 mm 1 mps 600 mmHg 70%
    12:00 +15°C° 1.1 mm 1 mps 600 mmHg 74%
    13:00 +15°C° 1.1 mm 2 mps 599 mmHg 78%
    14:00 +15°C° 1.7 mm 2 mps 599 mmHg 80%
    15:00 +15°C° 1.7 mm 2 mps 599 mmHg 81%
    16:00 +15°C° 1.7 mm 2 mps 599 mmHg 82%
    17:00 +14°C° 1.1 mm 1 mps 598 mmHg 86%
    18:00 +13°C° 1.1 mm 1 mps 598 mmHg 89%
    19:00 +12°C° 1.1 mm 1 mps 598 mmHg 92%
    20:00 +11°C° 1 mm 1 mps 597 mmHg 94%
    21:00 +10°C° 1 mm 1 mps 597 mmHg 95%
    22:00 +9°C° 1 mm 1 mps 597 mmHg 97%
    23:00 +9°C° 0.7 mm 1 mps 597 mmHg 97%

    22 June, Saturday

    Time Temperature Precipitation Wind Pressure Humidity
    00:00 +8°C° 0.7 mm 1 mps 597 mmHg 97%
    01:00 +8°C° 0.7 mm 1 mps 597 mmHg 97%
    02:00 +8°C° 0.1 mm 1 mps 597 mmHg 98%
    03:00 +8°C° 0.1 mm 1 mps 597 mmHg 98%
    04:00 +8°C° 0.1 mm 1 mps 596 mmHg 98%
    05:00 +9°C° 0.1 mm 1 mps 597 mmHg 97%
    06:00 +9°C° 0.1 mm 1 mps 597 mmHg 95%
    07:00 +9°C° 0.1 mm 0 mps 598 mmHg 94%
    08:00 +10°C° 0.6 mm 1 mps 598 mmHg 92%
    09:00 +11°C° 0.6 mm 1 mps 598 mmHg 90%
    10:00 +12°C° 0.6 mm 1 mps 598 mmHg 88%
    11:00 +12°C° 1.2 mm 1 mps 598 mmHg 89%
    12:00 +12°C° 1.2 mm 1 mps 598 mmHg 89%
    13:00 +12°C° 1.2 mm 1 mps 598 mmHg 90%
    14:00 +12°C° 1 mm 1 mps 598 mmHg 90%
    15:00 +12°C° 1 mm 1 mps 598 mmHg 91%
    16:00 +12°C° 1 mm 1 mps 598 mmHg 92%
    17:00 +11°C° 0.7 mm 1 mps 598 mmHg 93%
    18:00 +11°C° 0.7 mm 1 mps 598 mmHg 94%
    19:00 +10°C° 0.7 mm 0 mps 598 mmHg 96%
    20:00 +9°C° 0.4 mm 0 mps 598 mmHg 96%
    21:00 +8°C° 0.4 mm 0 mps 598 mmHg 97%
    22:00 +7°C° 0.4 mm 0 mps 598 mmHg 98%
    23:00 +7°C° 0.3 mm 0 mps 597 mmHg 98%
    Show more